549  
ASUS41 KBOX 221110  
RWRBOX  
 
REGIONAL WEATHER ROUNDUP  
NATIONAL WEATHER SERVICE TAUNTON MA  
700 AM EDT THU JUN 22 2017  
 
NOTE: "FAIR" INDICATES FEW OR NO CLOUDS BELOW 12,000 FEET WITH NO  
SIGNIFICANT WEATHER AND/OR S TO VISIBILITY
.  
 
MAZALL-221200-  
EASTERN MASSACHUSETTS  
 
CITY SKY/WX TMP DP RH WIND PRES REMARKS
 
BOSTON MOSUNNY 68 52 56 W5 29.97R  
BEVERLY SUNNY 64 55 72 W5 29.96R  
LAWRENCE SUNNY 65 55 70 SW6 29.99R  
BEDFORD SUNNY 63 52 67 W6 29.97R  
BLUE HILL N/A 61 51 70 W12 29.98R  
NORWOOD SUNNY 65 55 70 SW3 29.98R  
MARSHFIELD SUNNY 64 55 72 W3 29.97R  
PLYMOUTH SUNNY 64 53 67 W9 29.98R  
TAUNTON SUNNY 63 56 78 CALM 29.98R  
NEW BEDFORD SUNNY 65 53 65 NW7 29.97R  

 
 
MAZALL-221200-  
CAPE COD AND THE ISLANDS  
 
CITY SKY/WX TMP DP RH WIND PRES REMARKS
 
FALMOUTH SUNNY 64 55 72 NW7 29.98S  
HYANNIS SUNNY 68 53 58 NW6 29.96R  
CHATHAM SUNNY 67 56 67 VRB5 29.97R  
PROVINCETOWN SUNNY 61 56 83 W8 29.98R  
NANTUCKET SUNNY 67 59 75 NW10 29.97R  
MARTHAS VNYRD SUNNY 66 59 78 NW3 29.98R  

 
 
MAZALL-221200-  
CENTRAL AND WESTERN MASSACHUSETTS  
 
CITY SKY/WX TMP DP RH WIND PRES REMARKS
 
WORCESTER SUNNY 61 48 62 W9 30.00R  
FITCHBURG SUNNY 66 52 60 CALM 29.99R  
ORANGE SUNNY 56 54 93 CALM 30.01R  
SPRINGFIELD SUNNY 60 55 84 CALM 29.99R  
WESTFIELD SUNNY 61 56 83 SE3 30.00  
NORTH ADAMS SUNNY 55 51 86 E7 30.02S  
PITTSFIELD SUNNY 56 51 84 NE3 30.02S  

 
 
RIZALL-221200-  
RHODE ISLAND  
 
CITY SKY/WX TMP DP RH WIND PRES REMARKS
 
PROVIDENCE MOSUNNY 65 55 70 NW7 29.99R  
NEWPORT SUNNY 65 56 72 NW7 29.99R  
BLOCK ISLAND SUNNY 66 55 67 W8 30.00R  
WESTERLY SUNNY 67 53 61 VRB5 30.00R  

 
 
CTZALL-221200-  
CONNECTICUT  
 
CITY SKY/WX TMP DP RH WIND PRES REMARKS
 
BRADLEY INTL MOSUNNY 64 53 67 CALM 30.01R  
HARTFORD SUNNY 61 59 93 CALM 30.01R  
BRIDGEPORT SUNNY 68 56 65 CALM 30.01R  
DANBURY SUNNY 60 57 89 CALM 30.04R  
GROTON SUNNY 67 54 63 NW6 29.99R  
NEW HAVEN MOSUNNY 66 61 82 CALM 30.01R  
CHESTER FAIR 66 54 63 NW5 30.01S  
MERIDEN SUNNY 60 58 92 CALM 30.01R  
WILLIMANTIC SUNNY 62 57 83 CALM 30.01R  
OXFORD MOSUNNY 61 54 77 CALM 30.04R  

 
 
MEZ002-015-021-024-NHZ003-005-008-011-012-014-VTZ005-008-221200-  
NORTHERN NEW ENGLAND  
 
CITY SKY/WX TMP DP RH WIND PRES REMARKS
 
PORTLAND ME SUNNY 63 54 72 W3 29.93R  
BANGOR ME SUNNY 60 52 74 W7 29.89R  
CONCORD NH SUNNY 59 56 89 CALM 29.97R  
MANCHESTER NH SUNNY 63 50 62 CALM 29.97R  
NASHUA NH SUNNY 62 55 77 CALM 29.99R  
PORTSMOUTH NH SUNNY 64 55 73 SW7 29.95R  
JAFFREY NH SUNNY 58 53 84 S5 30.01R  
KEENE NH SUNNY 54 52 93 CALM 30.01R  
BURLINGTON VT MOSUNNY 60 55 83 SE3 29.95S  
MT. WASHINGTON FOG 39 39 100 NW37 N/A VSB 3/16WCI 26  

 
 
NYZ052-076-221200-  
EASTERN NEW YORK  
 
CITY SKY/WX TMP DP RH WIND PRES REMARKS
 
ALBANY SUNNY 61 53 75 CALM 30.01S  
NEW YORK CITY PTSUNNY 70 56 61 NE3 30.01R  

 
 
ANZALL-221200-  
MARINE OBSERVATIONS  
 
STATION/POSITION TIME TEMP WIND PRES VSBY WAVE
 
AIR SEA DIR/SP/G HT/PER  
(UTC) (F) (DEG/KT/KT) (MB) (MI) (FT/S)  
BOSTON BUOY 1050 60 57 250/ 6/ 8 1014.3R 1/ 6  
BUZZARDS BAY 1000 68 330/ 15/ 15 1015.0R  
NANTUCKET SOUND 1050 65 1014.6R 1  
MASS BAY-STELLWA 1004 60 59 270/ 8/ 10 1013.5R 2/ 7  
ISLE OF SHOALS 1000 61 290/ 7/ 7 1013.5R  
S OF BLOCK IS 1055 62 N/A 4/ 6  

 
   
.....................KEY......................
 
 
SKY/WX - SKY CONDITION/PRESENT WEATHER  
TMP - TEMPERATURE IN FAHRENHEIT  
DWPT - DEWPOINT IN FAHRENHEIT  
RH - RELATIVE HUMIDITY IN PERCENT  
WIND - DIRECTION AND SPEED IN MPH  
PRES - MEAN SEA LEVEL PRESSURE IN INCHES OF HG  
WCI - WIND CHILL INDEX  
VSB - VISIBILITY IN MILES  
HX - HEAT INDEX  
TC - TEMPERATURE IN CELSIUS  
VRB - VARIABLE WIND DIRECTION  
N/A - NOT AVAILABLE  
 
 
CLICK HERE TO GO TO PREVIOUS BULLETINS.

The Nexlab MA Page
The Nexlab RI Page
The Nexlab NH Page
The Nexlab CT Page Main Text Page